Zurück zum Katalog

STARLINK-5061

AktivKommunikationVLEO
NORAD 54847·PAYLOAD·🇺🇸 United States

Gestartet Dec 28, 2022 von Cape Canaveral Space Force Station

Loading…

Nächste Überflüge (nächste 24 Stunden)

TLE

AktuellSource: CelesTrak SupGP

Epoche: Sep 15, 2026, 02:25 UTC

1 54847C 22177AD  26258.10118056  .00031362  00000+0  11349-2 0  2584
2 54847  43.0019 120.5935 0001417 267.2263 263.2242 15.27593562    10

Verfolge STARLINK-5061 in Echtzeit mit AllMySat

Download on the App Store